Location: Boda
(47.1872°N, 9.5454°E)
Time: 08:37:42
(UTC+00:00)

Cosmos 2263 Rocket - Pass Details

Date: 14 May 2021
Orbit: 822 x 849 km, 71.0° (Epoch: 17 June)

Event Time Altitude Azimuth Distance (km) Brightness Sun altitude
Rises 01:06:31 0° 338° (NNW) 3,395 5.9 -19.8°
Reaches altitude 10° 01:09:21 10° 351° (N) 2,462 5.4 -19.6°
Maximum altitude 01:14:05 27° 47° (NE) 1,587 4.4 -19.2°
Drops below altitude 10° 01:18:48 10° 104° (ESE) 2,466 4.8 -18.8°
Sets 01:21:39 0° 117° (ESE) 3,401 5.4 -18.6°
